[TLELIST] Archives

 

[TLELIST] Current TLEs

June 17th 2023 PDT

HST 1 20580U 90037B 23167.68257692 .00004521 00000-0 23731-3 0 9999 2 20580 28.4697 271.3650 0002610 22.6416 122.4389 15.13276274621384 ISS (ZARYA) 1 25544U 98067A 23168.39293994 .00016231 00000-0 29044-3 0 9993 2 25544 51.6417 327.5006 0004293 56.3761 38.9062 15.50127835401825 CXO 1 25867U 99040B 23167.95598547 .00000258 00000-0 00000-0 0 9996 2 25867 37.6044 196.8849 9057103 262.3393 359.8060 0.37808990 13180 ...Continue Reading

[TLELIST] Current TLEs

June 16th 2023 PDT

HST 1 20580U 90037B 23167.02658203 .00004025 00000-0 21017-3 0 9994 2 20580 28.4696 275.7297 0002583 15.9551 148.2992 15.13269801621555 ISS (ZARYA) 1 25544U 98067A 23167.41671756 .00158143 00000-0 27112-2 0 9993 2 25544 51.6403 332.3542 0005521 41.1341 2.8285 15.50118058401677 CXO 1 25867U 99040B 23167.95598547 .00000258 00000-0 00000-0 0 9996 2 25867 37.6044 196.8849 9057103 262.3393 359.8060 0.37808990 13180 ...Continue Reading

[TLELIST] Current TLEs

June 16th 2023 PDT

HST 1 20580U 90037B 23167.02658203 .00004025 00000-0 21017-3 0 9994 2 20580 28.4696 275.7297 0002583 15.9551 148.2992 15.13269801621555 ISS (ZARYA) 1 25544U 98067A 23167.41671756 .00158143 00000-0 27112-2 0 9993 2 25544 51.6403 332.3542 0005521 41.1341 2.8285 15.50118058401677 CXO 1 25867U 99040B 23167.95598547 .00000258 00000-0 00000-0 0 9996 2 25867 37.6044 196.8849 9057103 262.3393 359.8060 0.37808990 13180 ...Continue Reading

[TLELIST] Current TLEs

June 15th 2023 PDT

HST 1 20580U 90037B 23165.70280257 .00003824 00000-0 19926-3 0 9999 2 20580 28.4697 284.5378 0002488 2.2641 136.0248 15.13259661621087 ISS (ZARYA) 1 25544U 98067A 23166.39186699 .00013044 00000-0 22976-3 0 9990 2 25544 51.6420 337.4223 0005417 81.7620 357.2264 15.50775554401519 CXO 1 25867U 99040B 23165.31217751 .00000236 00000-0 00000+0 0 9994 2 25867 37.6279 197.2753 9055592 262.0049 359.9279 0.37809856 24327 ...Continue Reading

[TLELIST] Current TLEs

June 14th 2023 PDT

HST 1 20580U 90037B 23164.78221896 .00003995 00000-0 20866-3 0 9994 2 20580 28.4697 290.6630 0002416 352.3228 160.9073 15.13253082620944 ISS (ZARYA) 1 25544U 98067A 23165.35874961 .00012381 00000-0 21872-3 0 9998 2 25544 51.6420 342.5433 0005347 81.2977 346.2530 15.50746744401356 CXO 1 25867U 99040B 23165.31217751 .00000236 00000-0 00000+0 0 9994 2 25867 37.6279 197.2753 9055592 262.0049 359.9279 0.37809856 24327 ...Continue Reading

[TLELIST] Current TLEs

June 13th 2023 PDT

HST 1 20580U 90037B 23163.78645934 .00004374 00000-0 22944-3 0 9997 2 20580 28.4699 297.2884 0002356 340.9284 136.9157 15.13246027620798 ISS (ZARYA) 1 25544U 98067A 23164.45988002 .00012421 00000-0 21957-3 0 9999 2 25544 51.6423 347.0020 0005355 78.1758 7.9884 15.50724144401210 CXO 1 25867U 99040B 23165.31217751 .00000236 00000-0 00000+0 0 9994 2 25867 37.6279 197.2753 9055592 262.0049 359.9279 0.37809856 24327 ...Continue Reading

[TLELIST] Current TLEs

June 12th 2023 PDT

HST 1 20580U 90037B 23163.13685888 .00004556 00000-0 23948-3 0 9995 2 20580 28.4700 301.6105 0002328 333.6779 198.3167 15.13241231620968 ISS (ZARYA) 1 25544U 98067A 23163.31467006 .00012077 00000-0 21394-3 0 9991 2 25544 51.6424 352.6837 0005364 74.0229 94.7181 15.50694286401034 CXO 1 25867U 99040B 23165.31217751 .00000236 00000-0 00000+0 0 9994 2 25867 37.6279 197.2753 9055592 262.0049 359.9279 0.37809856 24327 ...Continue Reading

[TLELIST] Current TLEs

June 12th 2023 PDT

HST 1 20580U 90037B 23163.13685888 .00004556 00000-0 23948-3 0 9995 2 20580 28.4700 301.6105 0002328 333.6779 198.3167 15.13241231620968 ISS (ZARYA) 1 25544U 98067A 23163.31467006 .00012077 00000-0 21394-3 0 9991 2 25544 51.6424 352.6837 0005364 74.0229 94.7181 15.50694286401034 CXO 1 25867U 99040B 23165.31217751 .00000236 00000-0 00000+0 0 9994 2 25867 37.6279 197.2753 9055592 262.0049 359.9279 0.37809856 24327 ...Continue Reading

[TLELIST] Current TLEs

June 12th 2023 PDT

HST 1 20580U 90037B 23163.13685888 .00004556 00000-0 23948-3 0 9995 2 20580 28.4700 301.6105 0002328 333.6779 198.3167 15.13241231620968 ISS (ZARYA) 1 25544U 98067A 23163.31467006 .00012077 00000-0 21394-3 0 9991 2 25544 51.6424 352.6837 0005364 74.0229 94.7181 15.50694286401034 CXO 1 25867U 99040B 23165.31217751 .00000236 00000-0 00000+0 0 9994 2 25867 37.6279 197.2753 9055592 262.0049 359.9279 0.37809856 24327 ...Continue Reading

[TLELIST] Current TLEs

June 11th 2023 PDT

HST 1 20580U 90037B 23161.81323396 .00004453 00000-0 23389-3 0 9996 2 20580 28.4702 310.4170 0002234 318.2419 188.7711 15.13230031620498 ISS (ZARYA) 1 25544U 98067A 23162.39423484 .00012962 00000-0 22919-3 0 9997 2 25544 51.6427 357.2502 0005327 69.9067 357.1481 15.50672992400891 CXO 1 25867U 99040B 23165.31165328 .00000236 00000-0 00000+0 0 9996 2 25867 37.6303 197.2862 9055594 261.9940 359.8569 0.37811602 24329 ...Continue Reading
  • This mailing list is a public mailing list - anyone may join or leave, at any time.
  • This mailing list is announce-only.

International Space Station (ISS) / Hubble Space Telescope (HST) / Chandra X-Ray Observatory Orbital Data via EMAIL

Privacy Policy:

Private list